QPF
0.00 0.00 0.00 0.00 0.00 0.00 0.00 0.00 0.00 0.00 0.00 0.00 0.00 0.00 0.00 0.00 0.00 0.01 0.00 0.01 0.01 0.01 0.01 0.01 0.01 0.01 0.01 0.01 0.01 0.01 0.02 0.02 0.01 0.01 0.00 0.00 0.00 0.00 0.00 0.00 0.00 0.00 0.00
0.00 0.00 0.00 0.00 0.00 0.00 0.00 0.00 0.00 0.00 0.00 0.00 0.00 0.00 0.00 0.00 0.00 0.00 0.00 0.00 0.01 0.01 0.01 0.01 0.01 0.01 0.01 0.01 0.01 0.01 0.02 0.01 0.01 0.00 0.00 0.00 0.00 0.00 0.00 0.00 0.00 0.00 0.00
0.00 0.00 0.00 0.00 0.00 0.00 0.00 0.00 0.00 0.00 0.00 0.00 0.00 0.00 0.00 0.00 0.00 0.00 0.00 0.00 0.01 0.01 0.01 0.01 0.01 0.01 0.01 0.01 0.01 0.01 0.01 0.01 0.01 0.00 0.00 0.00 0.00 0.00 0.00 0.00 0.00 0.00 0.00
0.00 0.00 0.00 0.00 0.00 0.00 0.00 0.00 0.00 0.00 0.00 0.00 0.00 0.00 0.00 0.00 0.00 0.00 0.00 0.00 0.01 0.01 0.01 0.01 0.01 0.01 0.01 0.01 0.01 0.01 0.01 0.01 0.00 0.00 0.00 0.00 0.00 0.00 0.00 0.00 0.00 0.00 0.00
0.00 0.00 0.00 0.00 0.00 0.00 0.00 0.00 0.00 0.00 0.00 0.00 0.00 0.00 0.00 0.00 0.00 0.00 0.00 0.00 0.00 0.01 0.01 0.01 0.01 0.01 0.01 0.01 0.00 0.01 0.01 0.01 0.00 0.00 0.00 0.00 0.00 0.00 0.00 0.01 0.01 0.01 0.00
0.00 0.00 0.00 0.00 0.00 0.00 0.00 0.00 0.00 0.00 0.00 0.00 0.00 0.00 0.00 0.00 0.00 0.00 0.00 0.00 0.00 0.00 0.00 0.01 0.01 0.01 0.00 0.00 0.00 0.00 0.00 0.00 0.00 0.00 0.00 0.00 0.00 0.00 0.00 0.01 0.01 0.01 0.01
0.00 0.00 0.00 0.00 0.00 0.00 0.00 0.00 0.00 0.00 0.00 0.00 0.00 0.00 0.00 0.00 0.00 0.00 0.00 0.00 0.00 0.00 0.00 0.00 0.00 0.00 0.00 0.00 0.00 0.00 0.00 0.00 0.00 0.00 0.00 0.00 0.00 0.00 0.01 0.01 0.01 0.01 0.01
0.00 0.00 0.00 0.00 0.00 0.00 0.00 0.00 0.00 0.00 0.00 0.00 0.00 0.00 0.00 0.00 0.00 0.00 0.00 0.00 0.00 0.00 0.00 0.00 0.00 0.00 0.00 0.00 0.00 0.00 0.00 0.00 0.00 0.00 0.00 0.00 0.00 0.00 0.01 0.01 0.01 0.01 0.02
0.00 0.00 0.00 0.00 0.00 0.00 0.00 0.00 0.00 0.00 0.00 0.00 0.00 0.00 0.00 0.00 0.00 0.00 0.00 0.00 0.00 0.00 0.00 0.00 0.00 0.00 0.00 0.00 0.00 0.00 0.00 0.00 0.00 0.00 0.00 0.00 0.00 0.00 0.01 0.01 0.01 0.02 0.02
0.00 0.00 0.00 0.00 0.00 0.00 0.00 0.00 0.00 0.00 0.00 0.00 0.00 0.00 0.00 0.00 0.00 0.00 0.00 0.00 0.00 0.00 0.00 0.00 0.00 0.00 0.00 0.00 0.00 0.00 0.00 0.00 0.00 0.00 0.00 0.00 0.00 0.00 0.01 0.01 0.02 0.02 0.02
0.00 0.00 0.00 0.00 0.00 0.00 0.00 0.00 0.00 0.00 0.00 0.00 0.00 0.00 0.00 0.00 0.00 0.00 0.00 0.00 0.00 0.00 0.00 0.00 0.00 0.00 0.00 0.00 0.00 0.00 0.00 0.00 0.00 0.00 0.00 0.00 0.00 0.00 0.01 0.01 0.02 0.02 0.02
0.00 0.00 0.00 0.00 0.00 0.00 0.00 0.00 0.00 0.00 0.00 0.00 0.00 0.00 0.00 0.00 0.00 0.00 0.00 0.00 0.00 0.00 0.00 0.00 0.00 0.00 0.00 0.00 0.00 0.00 0.00 0.00 0.00 0.00 0.00 0.00 0.00 0.00 0.01 0.01 0.01 0.02 0.02
0.00 0.00 0.00 0.00 0.00 0.00 0.00 0.00 0.00 0.00 0.00 0.00 0.00 0.00 0.00 0.00 0.00 0.00 0.00 0.00 0.00 0.00 0.00 0.00 0.00 0.00 0.00 0.00 0.00 0.00 0.00 0.00 0.00 0.00 0.00 0.00 0.00 0.00 0.00 0.01 0.01 0.02 0.02
0.00 0.00 0.00 0.00 0.00 0.00 0.00 0.00 0.00 0.00 0.00 0.00 0.00 0.00 0.00 0.00 0.00 0.00 0.00 0.00 0.00 0.00 0.00 0.00 0.00 0.00 0.00 0.00 0.00 0.00 0.00 0.00 0.00 0.00 0.00 0.00 0.00 0.00 0.00 0.01 0.01 0.02 0.02
0.00 0.00 0.00 0.00 0.00 0.00 0.00 0.00 0.00 0.00 0.00 0.00 0.00 0.00 0.00 0.00 0.00 0.00 0.00 0.00 0.00 0.00 0.00 0.00 0.00 0.00 0.00 0.00 0.00 0.00 0.00 0.00 0.00 0.00 0.00 0.00 0.00 0.00 0.00 0.00 0.01 0.01 0.02
0.00 0.00 0.00 0.00 0.00 0.00 0.00 0.00 0.00 0.00 0.00 0.00 0.00 0.00 0.00 0.00 0.00 0.00 0.00 0.00 0.00 0.00 0.00 0.00 0.00 0.00 0.00 0.00 0.00 0.00 0.00 0.00 0.00 0.00 0.00 0.00 0.00 0.00 0.00 0.00 0.01 0.01 0.02
0.00 0.00 0.00 0.00 0.00 0.00 0.00 0.00 0.00 0.00 0.00 0.00 0.00 0.00 0.00 0.00 0.00 0.00 0.00 0.00 0.00 0.00 0.00 0.00 0.00 0.00 0.00 0.00 0.00 0.00 0.00 0.00 0.00 0.00 0.00 0.00 0.00 0.00 0.00 0.00 0.00 0.01 0.02
0.00 0.00 0.00 0.00 0.00 0.00 0.00 0.00 0.00 0.00 0.00 0.00 0.00 0.00 0.00 0.00 0.00 0.00 0.00 0.00 0.00 0.00 0.00 0.00 0.00 0.00 0.00 0.00 0.00 0.00 0.00 0.00 0.00 0.00 0.00 0.00 0.00 0.00 0.00 0.00 0.00 0.01 0.02
0.00 0.00 0.00 0.00 0.00 0.00 0.00 0.00 0.00 0.00 0.00 0.00 0.00 0.00 0.00 0.00 0.00 0.00 0.00 0.00 0.00 0.00 0.00 0.00 0.00 0.00 0.00 0.00 0.00 0.00 0.00 0.00 0.00 0.00 0.00 0.00 0.00 0.00 0.00 0.00 0.00 0.00 0.01
0.00 0.00 0.00 0.00 0.00 0.00 0.00 0.00 0.00 0.00 0.00 0.00 0.00 0.00 0.00 0.00 0.00 0.00 0.00 0.00 0.00 0.00 0.00 0.00 0.00 0.00 0.00 0.00 0.00 0.00 0.00 0.00 0.00 0.00 0.00 0.00 0.00 0.00 0.00 0.00 0.00 0.00 0.00
0.00 0.00 0.00 0.00 0.00 0.00 0.00 0.00 0.00 0.00 0.00 0.00 0.00 0.00 0.00 0.00 0.00 0.00 0.00 0.00 0.00 0.00 0.00 0.00 0.00 0.00 0.00 0.00 0.00 0.00 0.00 0.00 0.00 0.00 0.00 0.00 0.00 0.00 0.00 0.00 0.00 0.00 0.00
0.00 0.00 0.00 0.00 0.00 0.00 0.00 0.00 0.00 0.00 0.00 0.00 0.00 0.00 0.00 0.00 0.00 0.00 0.00 0.00 0.00 0.00 0.00 0.00 0.00 0.00 0.00 0.00 0.00 0.00 0.00 0.00 0.00 0.00 0.00 0.00 0.00 0.00 0.00 0.00 0.00 0.01 0.01
0.00 0.00 0.00 0.00 0.00 0.00 0.00 0.00 0.00 0.00 0.00 0.00 0.00 0.00 0.00 0.00 0.00 0.00 0.00 0.00 0.00 0.00 0.00 0.00 0.00 0.00 0.00 0.00 0.00 0.00 0.00 0.00 0.00 0.00 0.00 0.00 0.00 0.00 0.00 0.00 0.00 0.00 0.01
0.00 0.00 0.00 0.00 0.00 0.00 0.00 0.00 0.00 0.00 0.00 0.00 0.00 0.00 0.00 0.00 0.00 0.00 0.00 0.00 0.00 0.00 0.00 0.00 0.00 0.00 0.00 0.00 0.00 0.00 0.00 0.00 0.01 0.00 0.00 0.00 0.00 0.00 0.00 0.00 0.00 0.00 0.01
0.00 0.00 0.00 0.00 0.00 0.00 0.00 0.00 0.00 0.00 0.00 0.00 0.00 0.00 0.00 0.00 0.00 0.00 0.00 0.00 0.00 0.00 0.00 0.00 0.00 0.00 0.00 0.00 0.00 0.00 0.00 0.00 0.00 0.01 0.00 0.00 0.00 0.00 0.00 0.00 0.00 0.00 0.00
0.00 0.00 0.00 0.00 0.00 0.00 0.00 0.00 0.00 0.00 0.00 0.00 0.00 0.00 0.00 0.00 0.00 0.00 0.00 0.00 0.00 0.00 0.00 0.00 0.00 0.00 0.00 0.00 0.00 0.00 0.00 0.00 0.00 0.00 0.00 0.00 0.00 0.00 0.00 0.00 0.00 0.00 0.00
MSLP
1028.46 1028.36 1028.24 1028.13 1028.07 1028.06 1028.09 1028.14 1028.18 1028.16 1028.06 1027.89 1027.66 1027.41 1027.19 1027.03 1026.96 1026.95 1027.00 1027.05 1027.06 1027.00 1026.87 1026.67 1026.44 1026.22 1026.06 1025.99 1026.00 1026.08 1026.18 1026.25 1026.23 1026.09 1025.80 1025.38 1024.86 1024.29 1023.70 1023.13 1022.61 1022.15 1021.75
1028.26 1028.18 1028.08 1028.00 1027.97 1028.02 1028.11 1028.23 1028.33 1028.37 1028.31 1028.17 1027.96 1027.74 1027.53 1027.39 1027.34 1027.36 1027.43 1027.51 1027.55 1027.51 1027.39 1027.20 1026.97 1026.75 1026.59 1026.52 1026.54 1026.64 1026.76 1026.85 1026.86 1026.74 1026.47 1026.06 1025.53 1024.93 1024.30 1023.70 1023.14 1022.65 1022.22
1028.12 1028.04 1027.94 1027.87 1027.88 1027.98 1028.14 1028.33 1028.50 1028.60 1028.61 1028.51 1028.34 1028.14 1027.96 1027.83 1027.79 1027.82 1027.89 1027.97 1028.00 1027.96 1027.83 1027.63 1027.40 1027.18 1027.02 1026.96 1027.01 1027.12 1027.28 1027.40 1027.44 1027.35 1027.10 1026.69 1026.16 1025.54 1024.89 1024.24 1023.65 1023.12 1022.67
1028.07 1027.98 1027.88 1027.83 1027.86 1027.99 1028.20 1028.45 1028.69 1028.86 1028.92 1028.89 1028.76 1028.60 1028.44 1028.32 1028.27 1028.29 1028.34 1028.38 1028.38 1028.31 1028.16 1027.95 1027.71 1027.50 1027.37 1027.33 1027.40 1027.56 1027.75 1027.91 1027.98 1027.92 1027.68 1027.28 1026.74 1026.10 1025.42 1024.74 1024.12 1023.57 1023.10
1028.14 1028.05 1027.95 1027.90 1027.94 1028.09 1028.33 1028.61 1028.89 1029.10 1029.23 1029.24 1029.17 1029.05 1028.91 1028.81 1028.75 1028.74 1028.75 1028.75 1028.70 1028.59 1028.41 1028.18 1027.95 1027.76 1027.65 1027.66 1027.77 1027.97 1028.20 1028.40 1028.50 1028.44 1028.21 1027.80 1027.25 1026.59 1025.88 1025.18 1024.53 1023.96 1023.48
1028.31 1028.23 1028.13 1028.08 1028.12 1028.27 1028.51 1028.80 1029.09 1029.33 1029.49 1029.55 1029.53 1029.45 1029.36 1029.28 1029.22 1029.18 1029.15 1029.09 1028.99 1028.83 1028.62 1028.38 1028.16 1028.00 1027.94 1027.99 1028.16 1028.40 1028.66 1028.88 1028.98 1028.93 1028.68 1028.25 1027.67 1026.98 1026.25 1025.53 1024.87 1024.30 1023.82
1028.55 1028.49 1028.40 1028.35 1028.39 1028.52 1028.73 1029.00 1029.28 1029.52 1029.70 1029.80 1029.83 1029.81 1029.77 1029.72 1029.67 1029.62 1029.55 1029.45 1029.30 1029.10 1028.86 1028.62 1028.42 1028.29 1028.28 1028.38 1028.60 1028.87 1029.14 1029.36 1029.45 1029.36 1029.08 1028.61 1027.99 1027.27 1026.52 1025.79 1025.13 1024.57 1024.11
1028.78 1028.75 1028.69 1028.66 1028.69 1028.79 1028.98 1029.21 1029.45 1029.68 1029.87 1030.00 1030.09 1030.13 1030.15 1030.15 1030.13 1030.08 1029.99 1029.85 1029.66 1029.43 1029.18 1028.94 1028.76 1028.68 1028.72 1028.86 1029.10 1029.39 1029.66 1029.84 1029.89 1029.74 1029.40 1028.88 1028.22 1027.47 1026.70 1025.96 1025.31 1024.77 1024.34
1028.94 1028.95 1028.94 1028.93 1028.97 1029.06 1029.21 1029.40 1029.61 1029.82 1030.01 1030.18 1030.32 1030.44 1030.52 1030.58 1030.60 1030.57 1030.48 1030.32 1030.10 1029.85 1029.59 1029.37 1029.22 1029.18 1029.25 1029.43 1029.67 1029.94 1030.17 1030.30 1030.27 1030.05 1029.64 1029.06 1028.36 1027.58 1026.80 1026.07 1025.44 1024.92 1024.51
1028.94 1029.02 1029.06 1029.10 1029.17 1029.27 1029.41 1029.57 1029.76 1029.95 1030.15 1030.35 1030.54 1030.73 1030.89 1031.01 1031.07 1031.07 1030.98 1030.82 1030.59 1030.34 1030.09 1029.89 1029.77 1029.75 1029.85 1030.03 1030.26 1030.49 1030.66 1030.70 1030.59 1030.29 1029.81 1029.18 1028.44 1027.65 1026.86 1026.15 1025.53 1025.02 1024.62
1028.74 1028.90 1029.02 1029.14 1029.26 1029.40 1029.54 1029.70 1029.88 1030.07 1030.28 1030.51 1030.75 1030.99 1031.21 1031.39 1031.50 1031.52 1031.45 1031.30 1031.08 1030.84 1030.61 1030.44 1030.34 1030.35 1030.45 1030.62 1030.82 1030.98 1031.07 1031.02 1030.82 1030.44 1029.90 1029.23 1028.47 1027.68 1026.91 1026.21 1025.60 1025.10 1024.69
1028.34 1028.58 1028.80 1029.01 1029.21 1029.40 1029.58 1029.76 1029.94 1030.14 1030.37 1030.63 1030.91 1031.19 1031.46 1031.68 1031.82 1031.87 1031.83 1031.69 1031.50 1031.29 1031.09 1030.95 1030.88 1030.90 1031.00 1031.14 1031.28 1031.37 1031.36 1031.23 1030.94 1030.50 1029.92 1029.23 1028.48 1027.71 1026.97 1026.28 1025.67 1025.16 1024.72
1027.75 1028.07 1028.39 1028.70 1028.99 1029.26 1029.50 1029.72 1029.93 1030.15 1030.39 1030.67 1030.96 1031.27 1031.56 1031.81 1031.98 1032.06 1032.04 1031.94 1031.79 1031.62 1031.46 1031.36 1031.32 1031.36 1031.44 1031.53 1031.60 1031.61 1031.51 1031.30 1030.94 1030.46 1029.86 1029.19 1028.48 1027.75 1027.04 1026.38 1025.77 1025.22 1024.74
1027.01 1027.41 1027.82 1028.23 1028.62 1028.97 1029.28 1029.55 1029.80 1030.05 1030.30 1030.58 1030.88 1031.19 1031.49 1031.74 1031.93 1032.04 1032.06 1032.01 1031.91 1031.80 1031.70 1031.65 1031.63 1031.67 1031.72 1031.76 1031.76 1031.68 1031.50 1031.21 1030.81 1030.31 1029.73 1029.10 1028.44 1027.78 1027.12 1026.49 1025.88 1025.30 1024.75
1026.19 1026.65 1027.14 1027.63 1028.11 1028.54 1028.93 1029.26 1029.55 1029.82 1030.08 1030.36 1030.65 1030.94 1031.22 1031.48 1031.68 1031.81 1031.88 1031.89 1031.86 1031.83 1031.80 1031.79 1031.80 1031.83 1031.85 1031.83 1031.75 1031.59 1031.33 1030.98 1030.54 1030.05 1029.50 1028.94 1028.36 1027.77 1027.18 1026.59 1025.99 1025.38 1024.77
1025.32 1025.83 1026.37 1026.93 1027.48 1027.99 1028.44 1028.83 1029.17 1029.46 1029.73 1029.99 1030.26 1030.53 1030.79 1031.03 1031.25 1031.42 1031.54 1031.62 1031.68 1031.72 1031.76 1031.80 1031.84 1031.86 1031.83 1031.75 1031.59 1031.34 1031.01 1030.61 1030.16 1029.67 1029.18 1028.69 1028.20 1027.70 1027.19 1026.65 1026.06 1025.44 1024.78
1024.44 1024.98 1025.56 1026.17 1026.77 1027.34 1027.86 1028.30 1028.68 1029.00 1029.27 1029.52 1029.76 1030.00 1030.24 1030.48 1030.70 1030.91 1031.10 1031.26 1031.41 1031.53 1031.64 1031.72 1031.77 1031.77 1031.70 1031.55 1031.31 1030.98 1030.59 1030.14 1029.68 1029.21 1028.77 1028.35 1027.94 1027.53 1027.10 1026.61 1026.06 1025.43 1024.74
1023.56 1024.11 1024.71 1025.35 1026.00 1026.62 1027.19 1027.69 1028.12 1028.46 1028.74 1028.98 1029.19 1029.41 1029.63 1029.87 1030.11 1030.37 1030.62 1030.86 1031.09 1031.29 1031.45 1031.57 1031.62 1031.60 1031.48 1031.26 1030.95 1030.56 1030.10 1029.62 1029.14 1028.69 1028.28 1027.92 1027.58 1027.24 1026.87 1026.45 1025.93 1025.32 1024.63
1022.66 1023.21 1023.82 1024.48 1025.16 1025.83 1026.46 1027.02 1027.49 1027.87 1028.16 1028.40 1028.60 1028.80 1029.01 1029.25 1029.52 1029.81 1030.12 1030.44 1030.73 1031.00 1031.21 1031.35 1031.40 1031.35 1031.19 1030.92 1030.55 1030.10 1029.61 1029.10 1028.60 1028.15 1027.76 1027.42 1027.12 1026.83 1026.51 1026.13 1025.66 1025.08 1024.40
1021.71 1022.26 1022.88 1023.55 1024.26 1024.98 1025.67 1026.28 1026.81 1027.22 1027.55 1027.79 1028.00 1028.19 1028.40 1028.64 1028.94 1029.27 1029.63 1029.99 1030.34 1030.65 1030.89 1031.04 1031.10 1031.03 1030.84 1030.54 1030.14 1029.66 1029.14 1028.61 1028.09 1027.63 1027.23 1026.89 1026.59 1026.31 1026.01 1025.66 1025.22 1024.67 1024.02
1020.68 1021.23 1021.85 1022.54 1023.29 1024.05 1024.79 1025.46 1026.04 1026.51 1026.87 1027.14 1027.36 1027.56 1027.78 1028.04 1028.35 1028.71 1029.10 1029.51 1029.89 1030.22 1030.48 1030.64 1030.69 1030.62 1030.43 1030.12 1029.72 1029.25 1028.72 1028.18 1027.65 1027.16 1026.73 1026.35 1026.01 1025.70 1025.39 1025.04 1024.62 1024.10 1023.49
1019.56 1020.12 1020.74 1021.44 1022.21 1023.01 1023.80 1024.53 1025.18 1025.70 1026.10 1026.41 1026.66 1026.88 1027.11 1027.39 1027.72 1028.10 1028.52 1028.94 1029.34 1029.68 1029.94 1030.11 1030.17 1030.11 1029.94 1029.67 1029.30 1028.86 1028.36 1027.83 1027.29 1026.77 1026.27 1025.82 1025.42 1025.04 1024.68 1024.30 1023.87 1023.38 1022.80
1018.36 1018.91 1019.53 1020.24 1021.02 1021.85 1022.69 1023.47 1024.16 1024.74 1025.20 1025.55 1025.84 1026.09 1026.36 1026.66 1027.01 1027.41 1027.84 1028.27 1028.66 1029.01 1029.27 1029.44 1029.52 1029.50 1029.38 1029.17 1028.87 1028.49 1028.04 1027.54 1026.99 1026.43 1025.86 1025.33 1024.82 1024.34 1023.89 1023.46 1023.01 1022.53 1021.98
1017.10 1017.65 1018.26 1018.96 1019.74 1020.59 1021.44 1022.26 1023.00 1023.63 1024.14 1024.55 1024.88 1025.18 1025.49 1025.82 1026.20 1026.62 1027.06 1027.48 1027.87 1028.20 1028.46 1028.65 1028.75 1028.78 1028.72 1028.60 1028.39 1028.09 1027.71 1027.25 1026.71 1026.10 1025.47 1024.83 1024.20 1023.61 1023.06 1022.55 1022.07 1021.58 1021.06
1015.84 1016.37 1016.96 1017.64 1018.41 1019.25 1020.11 1020.94 1021.71 1022.38 1022.94 1023.40 1023.79 1024.15 1024.51 1024.89 1025.30 1025.74 1026.18 1026.61 1026.99 1027.31 1027.57 1027.76 1027.89 1027.97 1027.99 1027.95 1027.84 1027.63 1027.33 1026.90 1026.37 1025.74 1025.03 1024.29 1023.55 1022.84 1022.18 1021.59 1021.06 1020.56 1020.06
1014.64 1015.14 1015.70 1016.34 1017.08 1017.89 1018.73 1019.56 1020.34 1021.03 1021.63 1022.14 1022.60 1023.02 1023.44 1023.88 1024.33 1024.80 1025.26 1025.68 1026.05 1026.36 1026.62 1026.81 1026.97 1027.09 1027.17 1027.21 1027.18 1027.06 1026.82 1026.44 1025.92 1025.26 1024.50 1023.67 1022.82 1022.01 1021.25 1020.58 1020.00 1019.49 1019.01
Thickness
5642 5642 5642 5640 5639 5637 5637 5636 5636 5636 5636 5636 5637 5637 5637 5637 5637 5637 5637 5637 5638 5638 5639 5640 5640 5641 5642 5643 5645 5646 5647 5647 5647 5647 5649 5653 5658 5664 5670 5675 5679 5683 5688
5644 5642 5641 5639 5637 5635 5634 5633 5633 5632 5632 5632 5632 5631 5631 5631 5630 5630 5630 5630 5631 5631 5631 5632 5632 5633 5633 5634 5635 5637 5638 5637 5636 5637 5638 5642 5647 5655 5661 5665 5670 5674 5678
5643 5641 5640 5637 5635 5633 5631 5630 5629 5628 5627 5626 5626 5625 5625 5624 5624 5623 5623 5623 5623 5624 5624 5624 5624 5625 5625 5625 5626 5628 5628 5627 5625 5626 5628 5631 5636 5644 5651 5656 5660 5664 5668
5642 5640 5637 5635 5632 5630 5628 5626 5624 5623 5622 5621 5620 5619 5618 5617 5616 5616 5616 5616 5616 5616 5616 5616 5616 5616 5616 5616 5617 5618 5618 5616 5614 5615 5617 5621 5625 5632 5639 5645 5650 5654 5658
5640 5637 5635 5632 5629 5627 5624 5622 5620 5618 5616 5615 5613 5612 5610 5610 5609 5608 5608 5608 5607 5607 5607 5607 5607 5607 5607 5607 5608 5609 5608 5606 5603 5604 5606 5610 5614 5621 5628 5633 5638 5643 5647
5637 5635 5632 5629 5626 5623 5620 5617 5615 5612 5610 5608 5606 5604 5603 5602 5601 5599 5600 5599 5599 5599 5599 5598 5598 5598 5597 5598 5598 5598 5598 5596 5592 5594 5596 5599 5603 5609 5616 5620 5625 5630 5635
5635 5632 5629 5627 5623 5619 5616 5613 5610 5607 5605 5602 5600 5597 5595 5594 5593 5591 5591 5590 5590 5589 5589 5589 5589 5588 5587 5587 5587 5587 5586 5584 5582 5583 5585 5587 5592 5598 5603 5607 5611 5616 5621
5633 5629 5626 5624 5620 5616 5612 5609 5606 5603 5600 5597 5594 5590 5588 5586 5584 5582 5582 5581 5580 5579 5579 5578 5578 5577 5575 5575 5575 5574 5572 5571 5569 5570 5572 5575 5580 5585 5590 5593 5597 5602 5606
5630 5627 5624 5621 5617 5613 5609 5606 5602 5598 5595 5591 5588 5584 5580 5578 5575 5573 5572 5571 5570 5569 5568 5567 5566 5564 5562 5561 5560 5559 5557 5554 5553 5554 5556 5559 5565 5570 5574 5578 5582 5586 5590
5626 5624 5621 5618 5614 5610 5606 5603 5599 5595 5591 5586 5582 5578 5573 5570 5567 5565 5563 5562 5560 5558 5556 5555 5553 5550 5548 5546 5545 5543 5540 5537 5537 5537 5538 5541 5546 5550 5554 5558 5562 5566 5571
5623 5621 5618 5615 5612 5608 5603 5600 5595 5591 5587 5582 5577 5573 5568 5564 5561 5557 5555 5552 5550 5547 5545 5542 5540 5536 5533 5530 5528 5526 5523 5521 5519 5519 5518 5520 5524 5527 5530 5533 5536 5541 5546
5623 5620 5617 5614 5610 5606 5602 5597 5593 5588 5583 5578 5574 5569 5564 5559 5555 5550 5546 5543 5540 5537 5533 5530 5527 5523 5520 5516 5513 5509 5506 5503 5501 5498 5497 5499 5502 5504 5505 5507 5508 5511 5515
5625 5621 5618 5614 5610 5605 5601 5596 5591 5585 5580 5575 5570 5564 5559 5554 5549 5544 5540 5536 5532 5527 5524 5519 5515 5511 5507 5502 5498 5494 5490 5486 5483 5480 5478 5478 5479 5479 5479 5479 5478 5479 5480
5626 5623 5619 5615 5610 5605 5600 5594 5589 5583 5578 5572 5566 5561 5555 5549 5544 5538 5533 5529 5524 5519 5514 5509 5504 5498 5493 5488 5483 5479 5474 5469 5465 5462 5459 5457 5455 5454 5451 5448 5445 5443 5442
5629 5625 5621 5616 5610 5605 5599 5593 5587 5582 5576 5570 5563 5557 5551 5545 5539 5533 5527 5522 5516 5511 5505 5499 5493 5487 5480 5475 5469 5464 5459 5454 5449 5444 5439 5434 5430 5425 5420 5414 5409 5405 5401
5634 5629 5623 5617 5611 5605 5599 5593 5587 5581 5574 5567 5561 5554 5547 5540 5534 5527 5521 5515 5509 5502 5496 5489 5482 5475 5468 5462 5456 5451 5445 5440 5434 5428 5421 5413 5404 5396 5387 5379 5372 5366 5363
5640 5633 5626 5619 5612 5606 5600 5593 5586 5579 5572 5565 5558 5551 5543 5536 5529 5522 5514 5508 5501 5494 5486 5479 5472 5465 5457 5451 5445 5438 5432 5426 5418 5411 5402 5392 5380 5367 5355 5345 5337 5331 5328
5642 5635 5628 5622 5614 5606 5600 5592 5585 5578 5570 5563 5556 5548 5540 5532 5524 5516 5508 5501 5493 5485 5477 5470 5462 5454 5447 5440 5434 5427 5420 5412 5403 5393 5382 5369 5354 5340 5326 5313 5304 5299 5295
5645 5638 5630 5623 5617 5608 5599 5591 5583 5575 5568 5561 5553 5545 5537 5529 5520 5512 5503 5495 5486 5477 5469 5460 5453 5444 5436 5429 5423 5417 5409 5399 5388 5376 5361 5345 5329 5313 5299 5286 5277 5270 5266
5647 5640 5633 5625 5617 5608 5597 5587 5579 5571 5565 5558 5551 5543 5534 5525 5516 5507 5498 5488 5479 5469 5460 5451 5442 5434 5425 5418 5412 5406 5396 5386 5372 5357 5340 5323 5306 5289 5275 5263 5253 5246 5242
5648 5641 5634 5625 5617 5606 5595 5586 5576 5569 5563 5555 5548 5540 5531 5521 5512 5502 5492 5482 5472 5461 5452 5442 5432 5423 5414 5405 5398 5394 5388 5375 5359 5341 5322 5304 5286 5270 5255 5242 5233 5226 5221
5653 5645 5636 5628 5620 5610 5602 5591 5580 5570 5562 5554 5545 5536 5527 5517 5507 5497 5487 5476 5465 5454 5443 5433 5422 5411 5402 5391 5380 5373 5368 5363 5348 5330 5309 5288 5269 5253 5238 5226 5217 5210 5204
5657 5651 5644 5634 5623 5612 5601 5587 5576 5565 5557 5548 5540 5533 5524 5514 5503 5493 5482 5470 5459 5447 5436 5424 5412 5400 5389 5377 5362 5348 5335 5331 5329 5322 5300 5280 5259 5241 5226 5214 5206 5198 5191
5665 5656 5646 5636 5624 5613 5600 5589 5579 5572 5563 5555 5545 5534 5522 5510 5499 5488 5477 5465 5453 5441 5428 5416 5404 5390 5377 5364 5350 5334 5319 5304 5289 5294 5291 5270 5250 5233 5218 5206 5197 5189 5183
5667 5656 5646 5634 5624 5613 5602 5593 5582 5574 5566 5551 5539 5527 5516 5505 5494 5483 5471 5459 5447 5434 5422 5408 5395 5381 5367 5353 5338 5323 5306 5289 5269 5255 5262 5263 5247 5229 5212 5200 5190 5183 5177
5664 5654 5643 5633 5624 5613 5602 5592 5582 5574 5562 5546 5534 5522 5511 5500 5489 5478 5466 5454 5441 5428 5415 5401 5387 5372 5358 5343 5328 5312 5295 5277 5263 5244 5237 5239 5238 5229 5211 5197 5185 5178 5174